Location: Unspecified
(0.0000°N, 0.0000°E)
Time: 08:21:02
(UTC+00:00)

Amateur Radio Satellites - All Passes

Search period start: 14 December 2017 07:51
Search period end: 15 December 2017 07:51
Location: Unspecified, 0.0000°N, 0.0000°E

Satellite Date Start Highest point End Downlink Frequencies (MHz)
Time Altitude Azimuth
STRAND 1 14 Dec 08:00:12 08:04:08 22° 257° (WSW) 08:08:04 437.568
ZACube-1 14 Dec 08:13:50 08:18:01 40° 281° (W) 08:22:19 437.345
DELFI C3 14 Dec 08:19:19 08:20:28 11° 102° (ESE) 08:21:38 145.870
AO-85 14 Dec 08:27:21 08:32:36 82° 68° (ENE) 08:37:59 145.980
JUGNU 14 Dec 08:30:48 08:34:59 20° 15° (NNE) 08:39:12 437.505
Oscar 11 14 Dec 08:35:07 08:39:11 40° 282° (WNW) 08:43:16 .
Max Valier Satellite 14 Dec 08:38:37 08:40:28 13° 102° (ESE) 08:42:19 145.860
FO-29 14 Dec 08:41:34 08:48:12 48° 258° (WSW) 08:55:28 435.910
AO-73 14 Dec 08:49:42 08:52:29 16° 281° (W) 08:55:17 145.935
nSIGHT-1 14 Dec 08:55:25 08:58:36 75° 304° (NW) 09:01:47 .
EO-88 14 Dec 09:07:23 09:10:18 23° 102° (ESE) 09:13:13 145.990 - 145.960
SRMSAT 14 Dec 09:18:02 09:18:46 10° 4° (N) 09:19:29 437.500
ISS 14 Dec 09:34:51 09:37:41 27° 306° (NW) 09:40:32 437.550
TIGRISAT 14 Dec 09:38:20 09:42:47 71° 259° (WSW) 09:47:06 435.000
UNISAT 6 14 Dec 09:41:28 09:45:51 56° 258° (WSW) 09:50:07 437.425
DELFI C3 14 Dec 09:51:52 09:54:55 22° 281° (WNW) 09:58:00 145.870
Max Valier Satellite 14 Dec 10:11:31 10:14:00 17° 281° (W) 10:16:30 145.860
JUGNU 14 Dec 10:18:38 10:24:21 47° 20° (NNE) 10:30:06 437.505
PRISM 14 Dec 10:33:52 10:37:52 46° 258° (WSW) 10:41:51 437.425
AIST 2D 14 Dec 10:35:12 10:38:30 41° 79° (E) 10:41:47 435.315
ESTCUBE 1 14 Dec 10:35:22 10:39:14 28° 102° (ESE) 10:43:06 437.505/2401.250
POLYITAN 1 14 Dec 10:52:05 10:54:48 17° 78° (ENE) 10:57:31 437.675
SRMSAT 14 Dec 11:05:12 11:08:56 17° 13° (NNE) 11:12:41 437.500
LO-87 14 Dec 11:12:57 11:16:19 41° 281° (W) 11:19:43 145.935 - 145.965
QB50P2 14 Dec 11:16:21 11:20:24 46° 78° (ENE) 11:24:25 145.880/145.840
SPROUT 14 Dec 11:22:20 11:25:20 19° 102° (ESE) 11:28:21 437.525
DUCHIFAT 1 14 Dec 11:22:51 11:26:39 33° 78° (ENE) 11:30:24 145.980
RS-15 14 Dec 11:23:25 11:29:17 15° 113° (ESE) 11:35:10 29.354- 29.394
NANOSAT C BR1 14 Dec 11:48:27 11:52:39 78° 258° (WSW) 11:56:50 145.865
EO-79 14 Dec 12:03:35 12:07:31 38° 258° (WSW) 12:11:25 145.935-145.965
BUGSAT 1 14 Dec 12:06:35 12:09:46 22° 79° (ENE) 12:12:54 437.445
JUGNU 14 Dec 12:07:29 12:13:26 64° 201° (SSW) 12:19:23 437.505
VELOX 1 14 Dec 12:11:22 12:15:36 50° 102° (ESE) 12:19:51 145.980
ESTCUBE 1 14 Dec 12:13:44 12:15:45 13° 282° (WNW) 12:17:46 437.505/2401.250
Oscar 19 14 Dec 12:18:54 12:22:14 18° 77° (ENE) 12:25:33 437.125/150
AO-91 14 Dec 12:24:08 12:28:19 23° 79° (E) 12:32:19 145.960
POLYITAN 1 14 Dec 12:27:24 12:30:18 18° 258° (WSW) 12:33:12 437.675
50 SAT 14 Dec 12:38:17 12:39:16 11° 102° (ESE) 12:40:14 437.505
SRMSAT 14 Dec 12:53:05 12:58:35 38° 20° (NNE) 13:04:04 437.500
Gurwin Techsat 1B 14 Dec 12:54:26 12:59:11 33° 77° (ENE) 13:03:54 435.225
UKube-1 14 Dec 12:56:29 12:58:49 14° 103° (ESE) 13:01:10 .
SPROUT 14 Dec 12:58:13 13:00:56 17° 282° (WNW) 13:03:41 437.525
DX 1 14 Dec 13:09:07 13:13:13 43° 102° (ESE) 13:17:19 434.975-435.025
RS-15 14 Dec 13:29:27 13:41:28 85° 290° (WNW) 13:53:50 29.354- 29.394
BUGSAT 1 14 Dec 13:42:47 13:44:49 13° 257° (WSW) 13:46:52 437.445
SO-50 14 Dec 13:48:02 13:52:27 64° 112° (ESE) 13:56:50 436.795
AO-7 14 Dec 13:48:46 13:53:43 17° 73° (ENE) 13:58:39 .
Oscar 19 14 Dec 13:56:59 14:01:16 27° 257° (WSW) 14:05:34 437.125/150
JUGNU 14 Dec 13:57:50 14:02:41 25° 197° (SSW) 14:07:32 437.505
AO-91 14 Dec 14:00:12 14:04:25 24° 257° (WSW) 14:08:31 145.960
MOZHAYETS 4 14 Dec 14:03:29 14:06:40 18° 102° (ESE) 14:09:51
50 SAT 14 Dec 14:09:33 14:10:55 12° 281° (WNW) 14:12:17 437.505
BEESAT 14 Dec 14:19:31 14:22:49 19° 103° (ESE) 14:26:09 436.000
YUBILEINY 14 Dec 14:28:28 14:37:08 66° 87° (E) 14:45:45 435.215
UKube-1 14 Dec 14:31:13 14:34:33 22° 282° (WNW) 14:37:55 .
Gurwin Techsat 1B 14 Dec 14:35:44 14:38:49 16° 257° (WSW) 14:41:55 435.225
SRMSAT 14 Dec 14:41:51 14:47:50 80° 201° (SSW) 14:53:47 437.500
ITUPSAT 1 14 Dec 14:46:15 14:50:45 42° 103° (ESE) 14:55:16 437.325
M-CUBED/EXP-1 PRIME 14 Dec 14:47:11 14:50:46 39° 74° (ENE) 14:54:37 437.505
ITAMSAT 1 14 Dec 15:07:13 15:12:16 50° 77° (ENE) 15:17:18 435.822/435.867
CUBESAT XI-V 14 Dec 15:24:22 15:28:38 36° 102° (ESE) 15:32:54 437.345
AO-7 14 Dec 15:37:58 15:46:04 60° 254° (WSW) 15:54:11 .
MOZHAYETS 4 14 Dec 15:40:03 15:43:31 21° 282° (WNW) 15:47:02
JUGNU 14 Dec 15:49:55 15:52:25 13° 189° (S) 15:54:55 437.505
RS-15 14 Dec 15:50:14 15:54:02 12° 295° (WNW) 15:57:51 29.354- 29.394
BEESAT 14 Dec 15:56:39 16:00:19 22° 282° (WNW) 16:03:59 436.000
KKS-1 14 Dec 15:58:29 15:59:36 11° 103° (ESE) 16:00:45 437.445
DOVE 4 14 Dec 16:24:57 16:30:09 65° 78° (ENE) 16:35:24 437.250
YUBILEINY 14 Dec 16:29:36 16:33:31 14° 267° (W) 16:37:27 435.215
NO-84 14 Dec 16:30:00 16:34:07 52° 238° (WSW) 16:38:16 435.350 FM
SRMSAT 14 Dec 16:32:00 16:37:08 30° 199° (SSW) 16:42:15 437.500
STARS 14 Dec 16:41:36 16:43:45 13° 103° (ESE) 16:45:54 437.465
PCSat 14 Dec 16:49:43 16:54:41 38° 109° (ESE) 16:59:39 145.827
XW-2F 14 Dec 17:00:27 17:02:27 14° 78° (ENE) 17:04:27 145.980 - 146.000
CUBESAT XI-V 14 Dec 17:04:45 17:05:43 11° 282° (WNW) 17:06:40 437.345
XW-2C 14 Dec 17:14:11 17:17:22 26° 79° (ENE) 17:20:32 145.795 - 145.815
KKS-1 14 Dec 17:31:59 17:35:52 31° 282° (WNW) 17:39:47 437.445
CUTE 1.7 + AOD 2 14 Dec 17:40:33 17:41:18 10° 78° (ENE) 17:42:03 437.475
LilacSat-2 14 Dec 17:49:31 17:53:16 66° 259° (WSW) 17:57:01 437.200
XW-2D 14 Dec 18:04:34 18:08:04 38° 259° (W) 18:11:35 145.860 - 145.880
CUTE-I 14 Dec 18:09:22 18:14:43 72° 257° (WSW) 18:20:04 437.470
NUDT-PHONESAT 14 Dec 18:10:28 18:14:02 55° 258° (WSW) 18:17:37 437.300
KAITUO 1B 14 Dec 18:13:37 18:17:10 45° 259° (W) 18:20:43 145.475/437.950
STARS 14 Dec 18:16:15 18:19:48 25° 282° (WNW) 18:23:22 437.465
XW-2B 14 Dec 18:20:55 18:23:56 23° 259° (W) 18:26:56 145.730 - 145.750
CUBEBUG 2 14 Dec 18:22:18 18:25:52 24° 79° (E) 18:29:19 437.445
SRMSAT 14 Dec 18:23:54 18:26:54 14° 191° (SSW) 18:29:54 437.500
O/OREOS (USA 219) 14 Dec 18:24:12 18:26:24 13° 75° (ENE) 18:28:35 437.305
UWE-3 14 Dec 18:25:00 18:26:12 11° 79° (E) 18:27:24 435.000/436.395/437.385
FALCONSAT 3 14 Dec 18:27:41 18:31:22 77° 322° (NW) 18:35:02 435.103
HO-68 14 Dec 18:31:02 18:38:11 67° 76° (ENE) 18:45:18 435.675
XW-2F 14 Dec 18:33:56 18:36:16 16° 259° (WSW) 18:38:37 145.980 - 146.000
PCSat 14 Dec 18:35:08 18:37:49 14° 290° (WNW) 18:40:30 145.827
BEESAT 3 14 Dec 18:36:09 18:40:04 85° 292° (WNW) 18:44:00 437.485
SEEDS 14 Dec 18:50:20 18:54:30 64° 78° (ENE) 18:58:38 437.485
ZACube-1 14 Dec 18:50:57 18:51:55 11° 79° (E) 18:52:52 437.345
XW-2A 14 Dec 18:51:10 18:53:23 17° 79° (E) 18:55:36 145.665 - 145.685
STRAND 1 14 Dec 18:52:43 18:57:41 55° 103° (ESE) 19:02:40 437.568
AAUSAT CUBESAT 2 14 Dec 19:10:23 19:14:16 40° 79° (ENE) 19:18:09 437.432
Oscar 11 14 Dec 19:11:12 19:11:58 10° 78° (ENE) 19:12:43 .
CUTE 1.7 + AOD 2 14 Dec 19:13:13 19:16:51 29° 259° (WSW) 19:20:30 437.475
BEESAT 2 14 Dec 19:15:26 19:19:17 58° 111° (ESE) 19:23:10 435.950
AO-73 14 Dec 19:22:26 19:26:02 28° 79° (E) 19:29:34 145.935
JUGNU 14 Dec 19:29:38 19:32:43 14° 169° (SSE) 19:35:47 437.505
UWE-3 14 Dec 19:58:45 20:02:25 27° 258° (WSW) 20:06:00 435.000/436.395/437.385
CUBEBUG 2 14 Dec 19:59:58 20:02:11 14° 257° (WSW) 20:04:22 437.445
O/OREOS (USA 219) 14 Dec 20:01:55 20:05:31 24° 255° (WSW) 20:09:08 437.305
FO-29 14 Dec 20:16:31 20:22:28 78° 282° (WNW) 20:27:51 435.910
DELFI C3 14 Dec 20:17:24 20:18:19 11° 78° (ENE) 20:19:14 145.870
HO-68 14 Dec 20:23:02 20:25:30 12° 254° (WSW) 20:27:58 435.675
ZACube-1 14 Dec 20:24:23 20:27:57 27° 258° (WSW) 20:31:28 437.345
nSIGHT-1 14 Dec 20:27:22 20:30:29 54° 54° (NE) 20:33:36 .
AO-85 14 Dec 20:41:37 20:45:24 47° 292° (WNW) 20:49:05 145.980
Oscar 11 14 Dec 20:44:04 20:47:50 30° 258° (WSW) 20:51:35 .
EO-88 14 Dec 20:57:28 20:59:40 15° 79° (E) 21:01:51 145.990 - 145.960
AO-73 14 Dec 21:01:33 21:01:57 10° 258° (WSW) 21:02:22 145.935
ISS 14 Dec 21:08:25 21:11:33 46° 235° (SW) 21:14:42 437.550
JUGNU 14 Dec 21:17:11 21:22:18 30° 161° (SSE) 21:27:23 437.505
DELFI C3 14 Dec 21:49:30 21:52:46 25° 259° (WSW) 21:56:03 145.870
TIGRISAT 14 Dec 21:51:01 21:55:18 47° 281° (WNW) 21:59:43 435.000
UNISAT 6 14 Dec 21:54:24 21:58:32 37° 281° (WNW) 22:02:46 437.425
Max Valier Satellite 14 Dec 22:01:49 22:04:44 23° 259° (WSW) 22:07:39 145.860
SRMSAT 14 Dec 22:04:59 22:07:29 13° 170° (S) 22:10:00 437.500
AIST 2D 14 Dec 22:21:10 22:24:02 23° 101° (ESE) 22:26:53 435.315
EO-88 14 Dec 22:31:11 22:33:01 13° 258° (WSW) 22:34:52 145.990 - 145.960
PRISM 14 Dec 22:36:21 22:40:10 42° 282° (WNW) 22:44:01 437.425
ESTCUBE 1 14 Dec 22:48:56 22:53:12 43° 78° (ENE) 22:57:27 437.505/2401.250
POLYITAN 1 14 Dec 22:57:32 23:00:44 21° 102° (ESE) 23:03:56 437.675
LO-87 14 Dec 23:00:24 23:03:58 71° 260° (W) 23:07:30 145.935 - 145.965
JUGNU 14 Dec 23:05:32 23:11:25 82° 158° (SSE) 23:17:16 437.505
QB50P2 14 Dec 23:22:13 23:26:22 57° 102° (ESE) 23:30:34 145.880/145.840
DUCHIFAT 1 14 Dec 23:27:42 23:31:39 40° 102° (ESE) 23:35:38 145.980
SPROUT 14 Dec 23:28:52 23:32:17 24° 78° (ENE) 23:35:42 437.525
SRMSAT 14 Dec 23:52:30 23:57:21 26° 162° (SSE) 00:02:13 437.500
NANOSAT C BR1 14 Dec 23:53:50 23:58:00 64° 282° (WNW) 00:02:13 145.865
BUGSAT 1 15 Dec 00:09:05 00:12:23 24° 102° (ESE) 00:15:44 437.445
EO-79 15 Dec 00:09:30 00:13:16 32° 282° (WNW) 00:17:04 145.935-145.965
VELOX 1 15 Dec 00:22:33 00:26:59 75° 79° (E) 00:31:26 145.980
POLYITAN 1 15 Dec 00:33:44 00:36:13 15° 282° (WNW) 00:38:44 437.675
AO-91 15 Dec 00:36:08 00:38:39 19° 103° (ESE) 00:41:17 145.960
Oscar 19 15 Dec 00:50:53 00:55:50 45° 103° (ESE) 01:00:47 437.125/150
JUGNU 15 Dec 00:55:09 01:00:29 36° 340° (NNW) 01:05:48 437.505
UKube-1 15 Dec 01:04:03 01:07:07 19° 78° (ENE) 01:10:10 .
SPROUT 15 Dec 01:05:48 01:07:53 13° 258° (WSW) 01:09:58 437.525
YUBILEINY 15 Dec 01:10:20 01:14:10 13° 93° (E) 01:17:59 435.215
RS-15 15 Dec 01:13:00 01:24:12 83° 70° (ENE) 01:35:04 29.354- 29.394
DX 1 15 Dec 01:18:26 01:22:46 61° 78° (ENE) 01:27:04 434.975-435.025
Gurwin Techsat 1B 15 Dec 01:32:16 01:37:34 85° 283° (WNW) 01:42:53 435.225
SRMSAT 15 Dec 01:40:48 01:46:43 67° 159° (SSE) 01:52:39 437.500
50 SAT 15 Dec 01:44:43 01:47:36 32° 258° (WSW) 01:50:29 437.505
BUGSAT 1 15 Dec 01:45:45 01:47:28 12° 282° (WNW) 01:49:11 437.445
SO-50 15 Dec 02:00:10 02:04:53 68° 248° (WSW) 02:09:39 436.795
AO-7 15 Dec 02:13:01 02:20:01 30° 107° (ESE) 02:26:59 .
MOZHAYETS 4 15 Dec 02:19:21 02:23:19 30° 78° (ENE) 02:27:15
Oscar 19 15 Dec 02:33:59 02:34:51 10° 283° (WNW) 02:35:43 437.125/150
UKube-1 15 Dec 02:39:59 02:42:51 18° 257° (WSW) 02:45:44 .
BEESAT 15 Dec 02:40:19 02:44:40 35° 78° (ENE) 02:49:00 436.000
JUGNU 15 Dec 02:46:27 02:49:55 16° 347° (NNW) 02:53:24 437.505
M-CUBED/EXP-1 PRIME 15 Dec 02:46:35 02:50:17 36° 104° (ESE) 02:53:45 437.505
YUBILEINY 15 Dec 03:01:53 03:10:33 68° 273° (W) 03:19:17 435.215
ITUPSAT 1 15 Dec 03:08:15 03:13:02 84° 76° (ENE) 03:17:47 437.325
SRMSAT 15 Dec 03:30:16 03:35:57 45° 340° (NNW) 03:41:38 437.500
RS-15 15 Dec 03:31:56 03:36:16 13° 247° (WSW) 03:40:36 29.354- 29.394
ITAMSAT 1 15 Dec 03:42:04 03:47:08 61° 282° (WNW) 03:52:14 435.822/435.867
CUBESAT XI-V 15 Dec 03:42:11 03:46:46 64° 78° (ENE) 03:51:21 437.345
MOZHAYETS 4 15 Dec 03:58:22 04:00:10 12° 258° (WSW) 04:01:59
AO-7 15 Dec 04:04:56 04:12:24 37° 286° (WNW) 04:19:53 .
KKS-1 15 Dec 04:09:08 04:12:00 17° 78° (ENE) 04:14:51 437.445
NO-84 15 Dec 04:13:16 04:16:04 55° 302° (WNW) 04:18:50 435.350 FM
BEESAT 15 Dec 04:20:42 04:22:08 11° 257° (WSW) 04:23:35 436.000
DOVE 4 15 Dec 04:46:32 04:50:41 66° 281° (W) 04:54:47 437.250
STARS 15 Dec 04:51:20 04:54:30 19° 78° (ENE) 04:57:38 437.465
XW-2F 15 Dec 04:54:13 04:55:21 11° 102° (ESE) 04:56:29 145.980 - 146.000
XW-2C 15 Dec 05:07:51 05:10:48 21° 101° (ESE) 05:13:45 145.795 - 145.815
CUTE-I 15 Dec 05:10:12 05:14:10 22° 103° (ESE) 05:18:08 437.470
SRMSAT 15 Dec 05:21:21 05:25:29 19° 345° (NNW) 05:29:39 437.500
PCSat 15 Dec 05:25:25 05:30:47 68° 251° (WSW) 05:36:08 145.827
LilacSat-2 15 Dec 05:43:35 05:47:27 84° 278° (W) 05:51:17 437.200
KKS-1 15 Dec 05:44:51 05:48:16 22° 257° (WSW) 05:51:41 437.445
CUTE 1.7 + AOD 2 15 Dec 05:45:25 05:47:28 13° 102° (ESE) 05:49:29 437.475
XW-2D 15 Dec 05:57:45 06:01:27 51° 281° (W) 06:05:10 145.860 - 145.880
NUDT-PHONESAT 15 Dec 06:01:09 06:04:53 82° 282° (WNW) 06:08:37 437.300
KAITUO 1B 15 Dec 06:05:21 06:09:04 64° 281° (W) 06:12:47 145.475/437.950
FALCONSAT 3 15 Dec 06:10:37 06:14:16 83° 214° (SW) 06:17:56 435.103
XW-2B 15 Dec 06:13:58 06:17:19 30° 281° (WNW) 06:20:41 145.730 - 145.750
HO-68 15 Dec 06:22:43 06:29:40 56° 104° (ESE) 06:36:38 435.675
XW-2F 15 Dec 06:26:16 06:29:10 21° 281° (WNW) 06:32:05 145.980 - 146.000
STARS 15 Dec 06:27:31 06:30:33 18° 257° (WSW) 06:33:33 437.465
BEESAT 3 15 Dec 06:27:34 06:31:23 86° 247° (WSW) 06:35:08 437.485
JUGNU 15 Dec 06:28:25 06:30:08 11° 8° (N) 06:31:51 437.505
CUBEBUG 2 15 Dec 06:33:28 06:37:34 36° 102° (ESE) 06:41:49 437.445
O/OREOS (USA 219) 15 Dec 06:33:44 06:37:27 24° 105° (ESE) 06:41:08 437.305
UWE-3 15 Dec 06:33:48 06:36:50 18° 102° (ESE) 06:39:54 435.000/436.395/437.385
XW-2C 15 Dec 06:43:35 06:44:41 11° 282° (WNW) 06:45:48 145.795 - 145.815
CUTE-I 15 Dec 06:49:44 06:53:55 24° 283° (WNW) 06:58:08 437.470
SEEDS 15 Dec 06:55:19 06:59:30 78° 100° (E) 07:03:42 437.485
ZACube-1 15 Dec 06:58:25 07:01:19 17° 102° (ESE) 07:04:16 437.345
BEESAT 2 15 Dec 07:08:10 07:12:02 60° 69° (ENE) 07:15:50 435.950
AAUSAT CUBESAT 2 15 Dec 07:13:33 07:17:29 44° 101° (ESE) 07:21:25 437.432
AO-85 15 Dec 07:14:04 07:17:24 17° 68° (ENE) 07:20:46 145.980
SRMSAT 15 Dec 07:14:11 07:15:36 11° 354° (N) 07:17:00 437.500
Oscar 11 15 Dec 07:18:11 07:20:32 14° 102° (ESE) 07:22:54 .
CUTE 1.7 + AOD 2 15 Dec 07:19:36 07:23:01 24° 282° (WNW) 07:26:25 437.475
STRAND 1 15 Dec 07:25:18 07:30:21 58° 258° (WSW) 07:35:23 437.568
AO-73 15 Dec 07:30:50 07:35:03 41° 102° (ESE) 07:39:20 145.935
